User: anonymous   Login
Location: Unspecified
(0.0000°N, 0.0000°E)
Time: 22:33:38
(UTC+00:00)
Language:

Uosat 5 - Orbit

View from above orbital plane
View from above orbital plane
View from above satellite
View from above satellite

Ground track
Ground track

The orbit data is extracted from the following two-line orbital elements,

1 21578U 91050E   18202.95498413 +.00000060 +00000-0 +25429-4 0  9996
2 21578 098.4797 228.7010 0004181 084.7584 337.9761 14.54009132426321
Epoch (UTC): 21 July 2018 22:55:10
Eccentricity: 0.0004181
inclination: 98.4797°
perigee height: 709 km
apogee height: 715 km
right ascension of ascending node: 228.7010°
argument of perigee: 84.7584°
revolutions per day: 14.54009132
mean anomaly at epoch: 337.9761°
orbit number at epoch: 42632

The dashed part of the orbit path shows where the satellite is in the earth's shadow,  

DLR